Home   Weather   Suzuka   Past weeks

Flag for Japan Past Weather in Suzuka, Japan — Yesterday and Last 2 Weeks

Now
37 °F

Chilly.


Feels Like: 30 °F
Forecast: 38 / 48 °F
Wind: 9 mph from West

Location: Tsu

Current Time: Jan 16, 2017 at 8:21:42 pm

Latest Report: Jan 16, 2017 at 7:00 pm


Visibility: N/A

Pressure: 30.10 "Hg

Humidity: 78%

Dew Point: 31 °F

Location of SuzukaLocation

Past Weather in Suzuka — Graph

°F

Suzuka Temperature Yesterday

Maximum temperature yesterday: 37 °F (at 4:00 pm)
Minimum temperature yesterday: 29 °F (at 7:00 am)
Average temperature yesterday: 33 °F

High & Low Weather Summary for the Past Weeks

 TemperatureHumidityPressure
High59 °F (Jan 2, 2:00 pm)89% (Jan 8, 8:00 pm)30.32 "Hg (Jan 8, 8:00 pm)
Low29 °F (Jan 15, 7:00 am)27% (Jan 13, 12:00 pm)29.63 "Hg (Jan 9, 12:00 am)
Average44 °F57%29.99 "Hg
* Reported Jan 1 6:00 pm — Jan 16 6:00 pm, Suzuka, Weather by CustomWeather, © 2017

Note: Actual official high and low records may vary slightly from our data, if they occured in-between our weather recording intervals... More about our weather records

Advertising

Suzuka Weather History for the Previous 24 Hours

Scroll right to see more
 ConditionsComfort  
Time TempWeatherWind HumidityBarometerVisibility
6:00 pm
Mon, Jan 16
39 °FChilly.13 mph66%30.06 "HgN/A
5:00 pm39 °FChilly.14 mph58%30.04 "HgN/A
4:00 pm42 °FQuite cool.15 mph45%30.01 "HgN/A
3:00 pm42 °FLight mixture of precip. Passing clouds.13 mph52%30.00 "Hg12 mi
2:00 pm41 °FQuite cool.15 mph57%30.01 "HgN/A
1:00 pm42 °FQuite cool.15 mph46%30.02 "HgN/A
12:00 pm41 °FQuite cool.9 mph58%30.03 "HgN/A
11:00 am37 °FChilly.6 mph77%30.06 "HgN/A
10:00 am36 °FChilly.9 mph75%30.07 "HgN/A
9:00 am37 °FSnow flurries. Partly sunny.6 mph71%30.05 "Hg9 mi
8:00 am36 °FChilly.8 mph65%30.03 "HgN/A
7:00 am35 °FChilly.7 mph67%30.00 "HgN/A
6:00 am35 °FChilly.3 mph70%30.00 "HgN/A
5:00 am34 °FChilly.2 mph70%29.99 "HgN/A
4:00 am35 °FChilly.2 mph72%29.99 "HgN/A
3:00 am36 °FChilly.6 mph66%30.00 "HgN/A
2:00 am35 °FChilly.8 mph67%29.99 "HgN/A
1:00 am35 °FChilly.9 mph69%29.98 "HgN/A
12:00 am34 °FChilly.9 mph70%29.99 "HgN/A
11:00 pm
Sun, Jan 15
34 °FChilly.10 mph70%29.99 "HgN/A
10:00 pm35 °FChilly.8 mph71%30.01 "HgN/A
9:00 pm34 °FSnow flurries. Passing clouds.12 mph83%30.01 "Hg6 mi
8:00 pm34 °FChilly.12 mph82%30.01 "HgN/A
Weather by CustomWeather, © 2017

See weather overviewHow to use our weather pages